Home > Weather > Brasilia > Past weeks

Flag for Brazil Past Weather in Brasilia, Distrito Federal, Brazil — Yesterday and Last 2 Weeks

Now
73 °F

Sunny.


Feels Like: 77 °F
Forecast: 57 / 74 °F
Wind: 9 mph from Southeast

Location: Brasilia Aeroporto

Current Time: Jun 27, 2016 at 5:26:15 PM

Latest Report: Jun 27, 2016 at 5:00 PM


Visibility: 10 mi

Pressure: 30.27 "Hg (26.69 "Hg at 1091m altitude)

Humidity: 33%

Dew Point: 43 °F

Location of BrasiliaLocation

Past Weather in Brasilia — Graph

°F

Brasilia Temperature Yesterday

Maximum temperature yesterday: 77 °F (at 3:00 PM)
Minimum temperature yesterday: 57 °F (at 5:00 AM)
Average temperature yesterday: 66 °F

High & Low Weather Summary for the Past Weeks

 TemperatureHumidityPressure
High81 °F (Jun 12, 4:00 PM)100% (Jun 15, 12:00 AM)30.39 "Hg (Jun 15, 12:00 AM)
Low48 °F (Jun 17, 5:00 AM)23% (Jun 18, 2:00 PM)30.15 "Hg (Jun 17, 2:00 PM)
Average66 °F63%30.24 "Hg
* Reported Jun 12 4:00 PM — Jun 27 4:00 PM, Brasilia, Weather by CustomWeather, © 2016

Note: Actual official high and low records may vary slightly from our data, if they occured in-between our weather recording intervals... More about our weather records

Advertising

Brasilia Weather History for the Previous 24 Hours

Scroll right to see more
 ConditionsComfort  
Time TempWeatherWind HumidityBarometerVisibility
4:00 PM
Mon, Jun 27
75 °FSunny.9 mph34%30.24 "Hg10 mi
3:00 PM75 °FSunny.13 mph31%30.24 "Hg10 mi
2:00 PM73 °FSunny.12 mph36%30.27 "Hg10 mi
1:00 PM73 °FSunny.12 mph38%30.30 "Hg10 mi
12:00 PM70 °FSunny.13 mph46%30.33 "Hg10 mi
11:00 AM68 °FSunny.17 mph49%30.33 "Hg10 mi
10:00 AM64 °FSunny.18 mph60%30.36 "Hg10 mi
9:00 AM63 °FSunny.16 mph64%30.36 "Hg10 mi
8:00 AM57 °FSunny.9 mph67%30.33 "Hg10 mi
7:00 AM55 °FSunny.13 mph77%30.30 "Hg10 mi
6:00 AM55 °FClear.7 mph72%30.27 "Hg10 mi
5:00 AM57 °FClear.7 mph77%30.27 "Hg10 mi
4:00 AM59 °FClear.7 mph72%30.24 "Hg10 mi
3:00 AM57 °FClear.7 mph82%30.24 "Hg10 mi
2:00 AM59 °FClear.3 mph72%30.27 "Hg10 mi
1:00 AM59 °FClear.5 mph77%30.27 "Hg10 mi
12:00 AM61 °FClear.6 mph68%30.27 "Hg10 mi
11:00 PM
Sun, Jun 26
63 °FClear.7 mph68%30.27 "Hg10 mi
10:00 PM64 °FPassing clouds.8 mph64%30.27 "HgN/A
9:00 PM64 °FPassing clouds.9 mph64%30.27 "HgN/A
8:00 PM66 °FPassing clouds.9 mph60%30.24 "HgN/A
7:00 PM70 °FPassing clouds.9 mph53%30.24 "HgN/A
6:00 PM72 °FPassing clouds.9 mph53%30.24 "HgN/A
5:00 PM75 °FPassing clouds.14 mph41%30.21 "HgN/A
Weather by CustomWeather, © 2016

See weather overviewHow to use our weather pages